TimeCST,TemperatureF,Dew PointF,Humidity,Sea Level PressureIn,VisibilityMPH,Wind Direction,Wind SpeedMPH,Gust SpeedMPH,PrecipitationIn,Events,Conditions,WindDirDegrees,DateUTC
12:16 AM,44.6,44.6,100,29.79,1.2,WSW,6.9,-,N/A,,Overcast,250,2012-12-02 06:16:00
12:41 AM,44.6,44.6,100,29.79,2.5,West,5.8,-,N/A,,Overcast,260,2012-12-02 06:41:00
12:54 AM,44.1,44.1,100,29.83,2.5,WSW,4.6,-,N/A,,Overcast,250,2012-12-02 06:54:00
1:40 AM,42.8,42.8,100,29.80,1.2,WNW,6.9,-,N/A,,Overcast,300,2012-12-02 07:40:00
1:54 AM,43.0,43.0,100,29.83,1.2,WNW,5.8,-,N/A,,Overcast,300,2012-12-02 07:54:00
2:51 AM,42.8,42.8,100,29.82,1.8,West,8.1,-,N/A,,Overcast,280,2012-12-02 08:51:00
2:54 AM,43.0,42.1,97,29.86,2.0,West,6.9,-,N/A,,Overcast,270,2012-12-02 08:54:00
3:10 AM,42.8,41.0,93,29.82,2.0,West,6.9,-,N/A,,Overcast,260,2012-12-02 09:10:00
3:54 AM,42.1,39.9,92,29.86,3.0,WNW,5.8,-,N/A,,Overcast,300,2012-12-02 09:54:00
4:54 AM,41.0,39.0,93,29.86,4.0,WNW,8.1,-,N/A,,Overcast,290,2012-12-02 10:54:00
5:54 AM,39.9,37.9,93,29.90,4.0,NW,5.8,-,N/A,,Overcast,310,2012-12-02 11:54:00
6:17 AM,39.2,37.4,93,29.87,4.0,NNW,5.8,-,N/A,,Overcast,330,2012-12-02 12:17:00
6:54 AM,39.9,37.0,89,29.93,4.0,NW,8.1,-,N/A,,Overcast,310,2012-12-02 12:54:00
7:54 AM,39.0,36.0,89,29.95,3.0,NW,5.8,-,N/A,,Overcast,320,2012-12-02 13:54:00
8:54 AM,37.9,36.0,93,29.98,4.0,NNW,4.6,-,N/A,,Overcast,330,2012-12-02 14:54:00
9:54 AM,37.9,35.1,89,30.01,4.0,NW,6.9,-,N/A,,Overcast,310,2012-12-02 15:54:00
10:54 AM,37.9,35.1,89,30.01,4.0,NW,3.5,-,N/A,,Overcast,310,2012-12-02 16:54:00
11:54 AM,37.9,35.1,89,30.00,4.0,NNW,3.5,-,N/A,,Overcast,330,2012-12-02 17:54:00
12:54 PM,37.9,35.1,89,30.00,5.0,Calm,Calm,-,N/A,,Overcast,0,2012-12-02 18:54:00
1:54 PM,37.9,35.1,89,30.00,5.0,Calm,Calm,-,N/A,,Overcast,0,2012-12-02 19:54:00
3:54 PM,37.9,36.0,93,30.04,4.0,Calm,Calm,-,N/A,,Overcast,0,2012-12-02 21:54:00
4:54 PM,37.9,36.0,93,30.04,4.0,South,3.5,-,N/A,,Overcast,170,2012-12-02 22:54:00
5:14 PM,37.4,35.6,93,30.00,4.0,South,3.5,-,N/A,,Overcast,180,2012-12-02 23:14:00
5:54 PM,37.0,35.1,93,30.04,3.0,SSE,6.9,-,N/A,,Overcast,150,2012-12-02 23:54:00
6:14 PM,35.6,35.6,100,30.00,2.5,SE,5.8,-,N/A,,Overcast,140,2012-12-03 00:14:00
6:50 PM,35.6,35.6,100,29.99,1.5,SSE,5.8,-,N/A,,Overcast,150,2012-12-03 00:50:00
6:54 PM,36.0,35.1,97,30.04,1.2,SSE,5.8,-,N/A,,Overcast,150,2012-12-03 00:54:00
7:31 PM,35.6,35.6,100,30.00,0.8,SSE,9.2,-,N/A,,Overcast,150,2012-12-03 01:31:00
7:54 PM,36.0,36.0,100,30.04,0.5,SSE,8.1,-,N/A,Fog,Fog,150,2012-12-03 01:54:00
8:54 PM,36.0,36.0,100,30.05,0.2,SE,5.8,-,N/A,Fog,Fog,140,2012-12-03 02:54:00
9:54 PM,36.0,36.0,100,30.05,0.2,SE,11.5,-,N/A,Fog,Fog,140,2012-12-03 03:54:00
10:54 PM,37.0,37.0,100,30.03,0.2,SE,9.2,-,N/A,Fog,Fog,130,2012-12-03 04:54:00
11:54 PM,37.9,37.9,100,30.01,0.2,SE,8.1,-,N/A,Fog,Fog,140,2012-12-03 05:54:00